TimeCDT,TemperatureF,Dew PointF,Humidity,Sea Level PressureIn,VisibilityMPH,Wind Direction,Wind SpeedMPH,Gust SpeedMPH,PrecipitationIn,Events,Conditions,WindDirDegrees,DateUTC
12:53 AM,55.0,50.0,83,30.09,10.0,NNE,17.3,34.5,0.00,Rain,Light Rain,20,2013-03-20 05:53:00
1:00 AM,55.0,50.0,83,30.13,10.0,North,11.5,25.3,0.00,Thunderstorm,Overcast,360,2013-03-20 06:00:00
1:15 AM,54.0,50.0,86,30.08,9.0,ENE,17.3,24.2,0.00,Rain,Light Rain,60,2013-03-20 06:15:00
1:23 AM,54.0,51.1,90,30.09,10.0,NE,12.7,25.3,0.00,,Overcast,50,2013-03-20 06:23:00
1:53 AM,55.0,50.0,83,30.13,10.0,WNW,24.2,33.4,0.00,Thunderstorm,Thunderstorm,290,2013-03-20 06:53:00
1:58 AM,54.0,48.9,83,30.19,0.8,West,48.3,66.7,0.22,Rain-Thunderstorm,Light Thunderstorms and Rain,270,2013-03-20 06:58:00
2:10 AM,54.0,50.0,86,30.06,2.0,East,13.8,33.4,0.48,Rain-Thunderstorm,Thunderstorms and Rain,80,2013-03-20 07:10:00
2:18 AM,54.0,50.0,86,30.10,8.0,Variable,5.8,-,0.48,Rain-Thunderstorm,Light Thunderstorms and Rain,0,2013-03-20 07:18:00
2:24 AM,53.1,48.0,83,30.09,10.0,East,5.8,-,0.48,Rain-Thunderstorm,Light Rain,90,2013-03-20 07:24:00
2:32 AM,54.0,48.0,80,30.10,10.0,Variable,3.5,-,0.48,,Scattered Clouds,0,2013-03-20 07:32:00
2:53 AM,54.0,50.0,86,30.10,10.0,North,6.9,-,0.48,,Mostly Cloudy,350,2013-03-20 07:53:00
3:31 AM,54.0,51.1,90,30.12,9.0,North,13.8,-,N/A,,Overcast,360,2013-03-20 08:31:00
3:36 AM,54.0,51.1,90,30.11,7.0,NNE,15.0,-,N/A,,Overcast,20,2013-03-20 08:36:00
3:45 AM,53.1,50.0,89,30.12,6.0,North,11.5,19.6,N/A,,Overcast,10,2013-03-20 08:45:00
3:53 AM,52.0,50.0,93,30.14,8.0,NW,10.4,-,N/A,,Overcast,310,2013-03-20 08:53:00
4:05 AM,51.1,48.9,92,30.16,6.0,Variable,3.5,-,0.01,Rain-Thunderstorm,Rain,0,2013-03-20 09:05:00
4:26 AM,52.0,48.9,89,30.14,8.0,North,6.9,-,0.02,Rain,Light Rain,360,2013-03-20 09:26:00
4:53 AM,52.0,48.9,89,30.10,9.0,NNE,11.5,-,0.02,,Overcast,20,2013-03-20 09:53:00
5:17 AM,51.1,48.0,89,30.14,10.0,NNE,9.2,19.6,N/A,,Overcast,20,2013-03-20 10:17:00
5:53 AM,51.1,48.0,89,30.13,10.0,North,5.8,-,N/A,,Overcast,10,2013-03-20 10:53:00
6:21 AM,50.0,46.9,89,30.19,10.0,North,4.6,-,N/A,,Mostly Cloudy,360,2013-03-20 11:21:00
6:37 AM,50.0,46.0,86,30.19,10.0,North,4.6,-,N/A,,Scattered Clouds,10,2013-03-20 11:37:00
6:53 AM,48.9,45.0,86,30.18,10.0,North,5.8,-,N/A,,Clear,360,2013-03-20 11:53:00
7:53 AM,48.0,42.1,80,30.20,10.0,NNE,8.1,-,N/A,,Clear,20,2013-03-20 12:53:00
8:53 AM,50.0,41.0,71,30.23,10.0,NNE,8.1,-,N/A,,Clear,30,2013-03-20 13:53:00
9:53 AM,53.1,41.0,64,30.25,10.0,NE,12.7,19.6,N/A,,Clear,50,2013-03-20 14:53:00
10:53 AM,57.9,43.0,58,30.26,10.0,NNE,12.7,18.4,N/A,,Clear,30,2013-03-20 15:53:00
11:53 AM,61.0,39.9,46,30.26,10.0,NNE,13.8,23.0,N/A,,Clear,30,2013-03-20 16:53:00
12:53 PM,63.0,37.9,40,30.25,10.0,NE,12.7,23.0,N/A,,Clear,50,2013-03-20 17:53:00
1:53 PM,66.9,37.9,34,30.21,10.0,ENE,11.5,17.3,N/A,,Clear,60,2013-03-20 18:53:00
2:53 PM,68.0,35.1,30,30.18,10.0,NE,13.8,19.6,N/A,,Clear,50,2013-03-20 19:53:00
3:53 PM,68.0,33.1,27,30.15,10.0,ENE,10.4,-,N/A,,Clear,60,2013-03-20 20:53:00
4:53 PM,68.0,32.0,26,30.12,10.0,ENE,11.5,-,N/A,,Clear,60,2013-03-20 21:53:00
5:53 PM,66.9,30.9,26,30.10,10.0,East,8.1,-,N/A,,Clear,100,2013-03-20 22:53:00
6:53 PM,64.9,33.1,31,30.10,10.0,East,6.9,-,N/A,,Clear,90,2013-03-20 23:53:00
7:53 PM,62.1,36.0,38,30.09,10.0,East,3.5,-,N/A,,Clear,100,2013-03-21 00:53:00
8:53 PM,59.0,37.0,44,30.08,10.0,East,4.6,-,N/A,,Clear,90,2013-03-21 01:53:00
9:53 PM,57.9,35.1,42,30.07,10.0,East,4.6,-,N/A,,Clear,80,2013-03-21 02:53:00
10:53 PM,57.0,35.1,44,30.06,10.0,East,5.8,-,N/A,,Clear,90,2013-03-21 03:53:00
11:53 PM,57.0,35.1,44,30.03,10.0,ESE,5.8,-,N/A,,Clear,110,2013-03-21 04:53:00